Location: Unspecified
(0.0000°N, 0.0000°E)
Time: 20:18:33
(UTC+00:00)

Explorer 7 - Pass Details

Date: 24 June 2025
Orbit: 444 x 569 km, 50.3° (Epoch: 12 July)

Event Time Altitude Azimuth Distance (km) Brightness Sun altitude
Rises 21:36:53 0° 312° (NW) 2,437 - -47.6°
Reaches altitude 10° 21:39:03 10° 305° (NW) 1,580 - -48.0°
Maximum altitude 21:42:26 43° 233° (SW) 661 - -48.7°
Drops below altitude 10° 21:45:58 10° 160° (SSE) 1,642 - -49.4°
Sets 21:48:15 0° 153° (SSE) 2,545 - -49.9°
